Overview Statistics Trail Chart Weather Telemetry Raw packets
 

This is the latest recevied weather packets stored in our database for station/object IZ5RIE-13. If no packets are shown the sender has not sent any weather packets the latest 10 day(s).

<< 1 2 3 4 5 >>
Time Temp. Humidity Pressure Rain* Wind** Luminosity Snow
1788691780 32.78° C 100% 1022.3 hPa - - - -
1788690916 32.78° C 100% 1022.2 hPa - - - -
1788690880 32.78° C 100% 1022.2 hPa - - - -
1788689980 33.33° C 100% 1022.3 hPa - - - -
1788689080 32.78° C 100% 1022.4 hPa - - - -
1788688180 31.67° C 100% 1022.4 hPa - - - -
1788687279 31.11° C 100% 1022.5 hPa - - - -
1788686418 31.11° C 100% 1022.6 hPa - - - -
1788686379 31.11° C 100% 1022.6 hPa - - - -
1788685479 31.67° C 100% 1022.6 hPa - - - -
1788684579 31.67° C 100% 1022.5 hPa - - - -
1788683679 30.56° C 100% 1022.3 hPa - - - -
1788682779 29.44° C 100% 1022.3 hPa - - - -
1788681878 27.22° C 100% 1022.1 hPa - - - -
1788681843 27.22° C 100% 1022.1 hPa - - - -
1788681814 27.22° C 100% 1022.1 hPa - - - -
1788681780 27.22° C 100% 1022.2 hPa - - - -
1788681748 27.22° C 100% 1022.1 hPa - - - -
1788681720 27.22° C 100% 1022.2 hPa - - - -
1788680820 26.67° C 100% 1022.1 hPa - - - -
1788679919 26.67° C 100% 1021.9 hPa - - - -
1788679891 26.67° C 100% 1021.8 hPa - - - -
1788678991 26.67° C 100% 1021.7 hPa - - - -
1788678090 26.67° C 100% 1021.5 hPa - - - -
1788678062 26.67° C 100% 1021.5 hPa - - - -

* Rain since midnight (hover to see other rain measurements)
** Current wind speed in m/s (hover to see current wind gust speed)